Regional Weather Roundup
Issued by NWS Cleveland, OH

Home | Current Version | Previous Version | Text Only | Print | Product List | Glossary On
Versions: 1 2 3 4 5 6 7 8 9 10 11 12 13 14 15 16 17 18 19 20 21 22 23 24 25 26 27 28 29 30 31 32 33 34 35 36 37 38 39 40 41 42 43 44 45 46 47 48 49 50
000
ASUS41 KCLE 240412
RWRCLE
OHIO REGIONAL WEATHER ROUNDUP
NATIONAL WEATHER SERVICE WILMINGTON, OH
1100 PM EST THU NOV 23 2017

NOTE: "FAIR" INDICATES FEW OR NO CLOUDS BELOW 12,000 FEET WITH NO
SIGNIFICANT WEATHER AND/OR OBSTRUCTIONS TO VISIBILITY.

OHZ001>008-015>018-024>027-034-035-043-044-240500-
   NORTHWEST OHIO

CITY           SKY/WX    TMP DP  RH WIND       PRES   REMARKS
DEFIANCE       FAIR      30  23  75 CALM      29.99S
FINDLAY        FAIR      32  23  69 S7        29.99F WCI  26
TOLEDO EXPRESS FAIR      29  26  89 CALM      29.99F
TOLEDO EXEC    CLOUDY    33  27  78 S7        30.00F WCI  27
LIMA           FAIR      31  25  78 S7        29.99F WCI  24
$$

OHZ009>014-019>023-028>033-038-089-240500-
   NORTHEAST OHIO

CITY           SKY/WX    TMP DP  RH WIND       PRES   REMARKS
CLE-HOPKINS    CLOUDY    36  25  64 SW7       30.04S
CLE-LAKEFRONT  CLOUDY    39  24  55 SW15      30.01F
CUY CO. ARPT   CLOUDY    37  25  60 SW9       30.02S
LORAIN-ELYRIA  CLOUDY    32  22  66 SW5       30.03S WCI  27
ASHTABULA      CLOUDY    37  25  61 SW7       30.01S
AKRON-CANTON   FAIR      30  21  69 SW5       30.03R WCI  25
WOOSTER        FAIR      26  22  84 CALM      30.03R
MANSFIELD      MOCLDY    30  24  78 SW6       30.01S WCI  24
YOUNGSTOWN     FAIR      32  22  66 SW5       30.02R WCI  27
$$

OHZ042-051>053-060>062-070>072-077>081-240500-
  SOUTHWEST OHIO

CITY           SKY/WX    TMP DP  RH WIND       PRES   REMARKS
CINC-COVINGTON FAIR      32  28  85 CALM      30.03R
CINC-LUNKEN    FAIR      29  27  92 CALM      30.07R
HAMILTON       FAIR      28  26  92 CALM      30.05R
DAYTON         FAIR      34  25  69 S7        30.01F WCI  28
WRIGHT-PAT AFB FAIR      31  24  72 SE3       30.02S
DAYTON GENERAL FAIR      35  23  61 CALM      30.03R
WILMINGTON     FAIR      31  25  78 SW5       30.03R WCI  26
$$

OHZ036-037-039>041-045>050-054>059-063>069-073>076-082>088-240500-
  CENTRAL AND SOUTHEAST OHIO

CITY           SKY/WX    TMP DP  RH WIND       PRES   REMARKS
COLUMBUS       FAIR      30  25  81 CALM      30.04R
OSU AIRPORT    FAIR      32  26  78 CALM      30.04R
BOLTON FIELD   FAIR      30  24  79 CALM      30.04R
RICKENBACK AFB FAIR      32  23  71 CALM      30.04R
NEWARK         FAIR      27  23  85 CALM      30.04R
MARION         FAIR      27  22  81 S5        30.03S WCI  22
LANCASTER      FAIR      26  23  88 CALM      30.04R
ZANESVILLE     FAIR      30  22  72 CALM      30.04R
NEW PHILLY     FAIR      28  23  81 CALM      30.05R
$$



USA.gov is the U.S. government's official web portal to all federal, state and local government web resources and services.